Weather History for KD50 - May, 2013

Change the Weather History Date:

Wednesday, May 15, 2013

  Actual Average (KISN) Record (KISN)
Temperature  
Mean Temperature 55 °F 54 °F  
Max Temperature 66 °F 67 °F 96 °F (1936)
Min Temperature 46 °F 40 °F 25 °F (1945)
Degree Days  
Heating Degree Days 10 11  
Month to date heating degree days 204  
Since 1 July heating degree days 8729  
Cooling Degree Days 0 0  
Month to date cooling degree days 0  
Year to date cooling degree days 1  
Growing Degree Days 5 (Base 50)    
Moisture  
Dew Point 40 °F    
Average Humidity 62    
Maximum Humidity 82    
Minimum Humidity 35    
Precipitation  
Precipitation 0.00 in 0.06 in 0.78 in (1966)
Month to date precipitation 0.80  
Year to date precipitation 3.49  
Sea Level Pressure  
Sea Level Pressure 29.88 in    
Wind  
Wind Speed 9 mph (West)    
Max Wind Speed 12 mph    
Max Gust Speed 16 mph    
Visibility 10 miles    
Events      
T = Trace of Precipitation, MM = Missing Value Source: NWS Daily Summary

Daily Weather History Graph

Daily Weather History Graph

Search for Another Location

Airport or City:

Trip Planner

Search our weather history database for the weather conditions in past years. The results will help you decide how hot, cold, wet, or windy it might be!

Date:

Astronomy

May. 15, 2013 Rise Set
Actual Time 6:10 AM CDT 9:29 PM CDT
Civil Twilight 5:32 AM CDT 10:07 PM CDT
Nautical Twilight 4:42 AM CDT 10:58 PM CDT
Astronomical Twilight 3:37 AM CDT 12:04 AM CDT
Moon 10:53 AM CDT (5/15) 1:12 AM CDT (5/15)
Length of Visible Light 16h 34m
Length of Day
15h 18m
Waxing Crescent, 27% of the Moon is Illuminated
May 15
Waxing Crescent
May 17
First Quarter
May 24
Full
May 31
Last Quarter
Jun 8
New

Hourly Weather History & Observations

Time (CDT) Temp. Windchill Dew Point Humidity Pressure Visibility Wind Dir Wind Speed Gust Speed Precip Events Conditions
12:15 AM 59.0 °F - 37.4 °F 45% 29.83 in 10.0 mi NW 11.5 mph - N/A   Overcast
12:35 AM 57.2 °F - 37.4 °F 48% 29.84 in 10.0 mi WNW 9.2 mph - N/A   Mostly Cloudy
12:55 AM 55.4 °F - 37.4 °F 51% 29.84 in 10.0 mi WNW 9.2 mph - N/A   Scattered Clouds
1:15 AM 55.4 °F - 39.2 °F 54% 29.84 in 10.0 mi NW 8.1 mph - N/A   Scattered Clouds
1:35 AM 53.6 °F - 39.2 °F 58% 29.84 in 10.0 mi WNW 6.9 mph - N/A   Scattered Clouds
1:55 AM 51.8 °F - 39.2 °F 62% 29.84 in 10.0 mi WNW 8.1 mph - N/A   Mostly Cloudy
2:15 AM 50.0 °F - 39.2 °F 66% 29.85 in 10.0 mi WNW 8.1 mph - N/A   Scattered Clouds
2:35 AM 51.8 °F - 39.2 °F 62% 29.85 in 10.0 mi WNW 8.1 mph - N/A   Scattered Clouds
2:55 AM 50.0 °F - 41.0 °F 71% 29.85 in 10.0 mi West 4.6 mph - N/A   Scattered Clouds
3:15 AM 48.2 °F - 39.2 °F 71% 29.85 in 10.0 mi SW 4.6 mph - N/A   Scattered Clouds
3:35 AM 48.2 °F - 41.0 °F 76% 29.85 in 10.0 mi SSW 8.1 mph - N/A   Scattered Clouds
3:55 AM 46.4 °F 42.9 °F 39.2 °F 76% 29.85 in 10.0 mi SSW 6.9 mph - N/A   Partly Cloudy
4:15 AM 46.4 °F 42.4 °F 41.0 °F 81% 29.86 in 10.0 mi WSW 8.1 mph - N/A   Scattered Clouds
4:35 AM 46.4 °F 42.9 °F 41.0 °F 81% 29.86 in 10.0 mi SSW 6.9 mph - N/A   Mostly Cloudy
4:55 AM 46.4 °F 42.9 °F 41.0 °F 81% 29.87 in 10.0 mi SW 6.9 mph - N/A   Mostly Cloudy
5:15 AM 48.2 °F - 41.0 °F 76% 29.87 in 10.0 mi WSW 8.1 mph - N/A   Mostly Cloudy
5:35 AM 48.2 °F - 42.8 °F 82% 29.89 in 10.0 mi West 8.1 mph - N/A   Mostly Cloudy
5:55 AM 46.4 °F 42.4 °F 41.0 °F 81% 29.89 in 10.0 mi WSW 8.1 mph - N/A   Scattered Clouds
6:15 AM 46.4 °F 42.4 °F 39.2 °F 76% 29.89 in 10.0 mi West 8.1 mph - N/A   Scattered Clouds
6:35 AM 48.2 °F - 41.0 °F 76% 29.90 in 10.0 mi West 8.1 mph - N/A   Clear
6:55 AM 50.0 °F - 41.0 °F 71% 29.90 in 10.0 mi West 9.2 mph - N/A   Clear
7:15 AM 51.8 °F - 41.0 °F 67% 29.90 in 10.0 mi WNW 9.2 mph - N/A   Clear
7:35 AM 53.6 °F - 41.0 °F 62% 29.90 in 10.0 mi WNW 9.2 mph - N/A   Clear
7:55 AM 55.4 °F - 41.0 °F 58% 29.91 in 10.0 mi NW 9.2 mph - N/A   Clear
8:15 AM 57.2 °F - 41.0 °F 55% 29.91 in 10.0 mi WNW 11.5 mph - N/A   Clear
8:35 AM 57.2 °F - 39.2 °F 51% 29.91 in 10.0 mi WNW 11.5 mph - N/A   Clear
8:55 AM 59.0 °F - 41.0 °F 51% 29.91 in 10.0 mi NW 11.5 mph - N/A   Clear
9:15 AM 59.0 °F - 39.2 °F 48% 29.91 in 10.0 mi WNW 11.5 mph - N/A   Clear
9:35 AM 62.6 °F - 39.2 °F 42% 29.91 in 10.0 mi WNW 10.4 mph - N/A   Clear
9:55 AM 62.6 °F - 39.2 °F 42% 29.91 in 10.0 mi NW 11.5 mph 16.1 mph N/A   Clear
10:15 AM 64.4 °F - 39.2 °F 40% 29.91 in 10.0 mi NW 11.5 mph - N/A   Clear
10:35 AM 64.4 °F - 37.4 °F 37% 29.91 in 10.0 mi WNW 11.5 mph - N/A   Clear
10:55 AM 66.2 °F - 37.4 °F 35% - - North - - N/A   Clear
11:15 AM - - - N/A% - - North - - N/A   Unknown
11:35 AM - - - N/A% - - North - - N/A   Unknown
11:55 AM - - - N/A% - - North - - N/A   Unknown
12:15 PM - - - N/A% - - North - - N/A   Unknown
12:55 PM - - - N/A% - - North - - N/A   Unknown
1:15 PM - - - N/A% - - North - - N/A   Unknown
1:35 PM - - - N/A% - - North - - N/A   Unknown
1:55 PM - - - N/A% - - North - - N/A   Unknown
2:15 PM - - - N/A% - - North - - N/A   Unknown
2:35 PM - - - N/A% - - North - - N/A   Unknown
2:55 PM - - - N/A% - - North - - N/A   Unknown
3:15 PM - - - N/A% - - North - - N/A   Unknown
3:35 PM - - - N/A% - - North - - N/A   Unknown
3:55 PM - - - N/A% - - North - - N/A   Unknown
4:15 PM - - - N/A% - - North - - N/A   Unknown
4:35 PM - - - N/A% - - North - - N/A   Unknown
4:55 PM - - - N/A% - - North - - N/A   Unknown
5:15 PM - - - N/A% - - North - - N/A   Unknown
5:35 PM - - - N/A% - - North - - N/A   Unknown
5:55 PM - - - N/A% - - North - - N/A   Unknown
6:15 PM - - - N/A% - - North - - N/A   Unknown
6:35 PM - - - N/A% - - North - - N/A   Unknown
6:55 PM - - - N/A% - - North - - N/A   Unknown
7:15 PM - - - N/A% - - North - - N/A   Unknown
7:35 PM - - - N/A% - - North - - N/A   Unknown
7:55 PM - - - N/A% - - North - - N/A   Unknown
8:15 PM - - - N/A% - - North - - N/A   Unknown
8:35 PM - - - N/A% - - North - - N/A   Unknown
8:55 PM - - - N/A% - - North - - N/A   Unknown
9:15 PM - - - N/A% - - North - - N/A   Unknown
9:35 PM - - - N/A% - - North - - N/A   Unknown
9:55 PM - - - N/A% - - North - - N/A   Unknown
10:15 PM - - - N/A% - - North - - N/A   Unknown
10:35 PM - - - N/A% - - North - - N/A   Unknown
10:55 PM - - - N/A% - - North - - N/A   Unknown
11:15 PM - - - N/A% - - North - - N/A   Unknown
11:35 PM - - - N/A% - - North - - N/A   Unknown
11:55 PM - - - N/A% - - North - - N/A   Unknown